owner,sensor,date,latitude,longitude,vertical_datum,direction_of_sea_water_velocity,sea_water_speed,upward_sea_water_velocity,qcFlag 
TABS,ioos:station:wmo:42046:1,2015-05-01T00:00:00Z,27.8903,-94.0367,2.0,117.5360087,7.916817542,-99999.0,'11133222,11111222,99999999' 
TABS,ioos:station:wmo:42046:1,2015-05-01T00:30:00Z,27.8903,-94.0367,2.0,121.1112769,6.657597164,-99999.0,'11133222,11111222,99999999' 
TABS,ioos:station:wmo:42046:1,2015-05-01T01:00:00Z,27.8903,-94.0367,2.0,93.74849528,5.812434946,-99999.0,'11133222,11111222,99999999' 
TABS,ioos:station:wmo:42046:1,2015-05-01T01:30:00Z,27.8903,-94.0367,2.0,86.80117589,5.017818251,-99999.0,'11133222,11111222,99999999' 
TABS,ioos:station:wmo:42046:1,2015-05-01T02:00:00Z,27.8903,-94.0367,2.0,78.52239988,6.030596985,-99999.0,'11133222,11111222,99999999' 
TABS,ioos:station:wmo:42046:1,2015-05-01T02:30:00Z,27.8903,-94.0367,2.0,123.926855,6.037963233,-99999.0,'11133222,11111222,99999999' 
TABS,ioos:station:wmo:42046:1,2015-05-01T03:00:00Z,27.8903,-94.0367,2.0,94.04274419,6.666588333,-99999.0,'11133222,11111222,99999999' 
TABS,ioos:station:wmo:42046:1,2015-05-01T03:30:00Z,27.8903,-94.0367,2.0,112.2425234,7.476315938,-99999.0,'11133222,11111222,99999999' 
TABS,ioos:station:wmo:42046:1,2015-05-01T04:00:00Z,27.8903,-94.0367,2.0,99.50851866,6.114000327,-99999.0,'11133222,11111222,99999999' 
TABS,ioos:station:wmo:42046:1,2015-05-01T04:30:00Z,27.8903,-94.0367,2.0,103.9768062,4.678514722,-99999.0,'11133222,11111222,99999999' 
TABS,ioos:station:wmo:42046:1,2015-05-01T05:00:00Z,27.8903,-94.0367,2.0,100.2178671,6.482815746,-99999.0,'11133222,11111222,99999999' 
TABS,ioos:station:wmo:42046:1,2015-05-01T05:30:00Z,27.8903,-94.0367,2.0,113.0401327,8.074063413,-99999.0,'11133222,11111222,99999999' 
TABS,ioos:station:wmo:42046:1,2015-05-01T06:00:00Z,27.8903,-94.0367,2.0,125.0234455,8.938640836,-99999.0,'11133222,11111222,99999999' 
TABS,ioos:station:wmo:42046:1,2015-05-01T06:30:00Z,27.8903,-94.0367,2.0,140.386012,9.566969217,-99999.0,'11133222,11111222,99999999' 
TABS,ioos:station:wmo:42046:1,2015-05-01T07:00:00Z,27.8903,-94.0367,2.0,132.3604748,3.992317623,-99999.0,'11133222,11111222,99999999' 
TABS,ioos:station:wmo:42046:1,2015-05-01T07:30:00Z,27.8903,-94.0367,2.0,158.9420805,10.15839062,-99999.0,'11111222,11111222,99999999' 
TABS,ioos:station:wmo:42046:1,2015-05-01T08:00:00Z,27.8903,-94.0367,2.0,171.5425731,6.935416354,-99999.0,'11133222,11111222,99999999' 
TABS,ioos:station:wmo:42046:1,2015-05-01T08:30:00Z,27.8903,-94.0367,2.0,157.8878443,6.508717232,-99999.0,'11133222,11111222,99999999' 
TABS,ioos:station:wmo:42046:1,2015-05-01T09:00:00Z,27.8903,-94.0367,2.0,166.5214848,8.966967157,-99999.0,'11133222,11111222,99999999' 
TABS,ioos:station:wmo:42046:1,2015-05-01T09:30:00Z,27.8903,-94.0367,2.0,196.1423624,8.380417651,-99999.0,'11133222,11111222,99999999' 
TABS,ioos:station:wmo:42046:1,2015-05-01T10:00:00Z,27.8903,-94.0367,2.0,150.149071,3.355145302,-99999.0,'11133222,11111222,99999999' 
TABS,ioos:station:wmo:42046:1,2015-05-01T10:30:00Z,27.8903,-94.0367,2.0,152.1159145,4.468847726,-99999.0,'11133222,11111222,99999999' 
TABS,ioos:station:wmo:42046:1,2015-05-01T11:00:00Z,27.8903,-94.0367,2.0,202.8654678,10.3970188,-99999.0,'11111222,11111222,99999999' 
TABS,ioos:station:wmo:42046:1,2015-05-01T11:30:00Z,27.8903,-94.0367,2.0,242.3744986,5.80135329,-99999.0,'11133222,11111222,99999999' 
TABS,ioos:station:wmo:42046:1,2015-05-01T12:00:00Z,27.8903,-94.0367,2.0,223.913641,5.969053526,-99999.0,'11133222,11111222,99999999' 
TABS,ioos:station:wmo:42046:1,2015-05-01T12:30:00Z,27.8903,-94.0367,2.0,293.1989572,0.456946386,-99999.0,'11133222,11111222,99999999' 
TABS,ioos:station:wmo:42046:1,2015-05-01T13:00:00Z,27.8903,-94.0367,2.0,259.189747,3.145822627,-99999.0,'11133222,11111222,99999999' 
TABS,ioos:station:wmo:42046:1,2015-05-01T13:30:00Z,27.8903,-94.0367,2.0,261.4688334,6.269362009,-99999.0,'11133222,11111222,99999999' 
TABS,ioos:station:wmo:42046:1,2015-05-01T14:00:00Z,27.8903,-94.0367,2.0,314.1905372,4.002624139,-99999.0,'11133222,11111222,99999999' 
TABS,ioos:station:wmo:42046:1,2015-05-01T14:30:00Z,27.8903,-94.0367,2.0,14.6569273,4.703041569,-99999.0,'11133222,11111222,99999999' 
TABS,ioos:station:wmo:42046:1,2015-05-01T15:00:00Z,27.8903,-94.0367,2.0,325.9636797,1.375681649,-99999.0,'11133222,11111222,99999999' 
TABS,ioos:station:wmo:42046:1,2015-05-01T15:30:00Z,27.8903,-94.0367,2.0,348.1239738,2.38096619,-99999.0,'11133222,11111222,99999999' 
TABS,ioos:station:wmo:42046:1,2015-05-01T16:00:00Z,27.8903,-94.0367,2.0,343.8063721,3.800802547,-99999.0,'11133222,11111222,99999999' 
TABS,ioos:station:wmo:42046:1,2015-05-01T16:30:00Z,27.8903,-94.0367,2.0,12.2601693,5.085990562,-99999.0,'11133222,11111222,99999999' 
TABS,ioos:station:wmo:42046:1,2015-05-01T17:00:00Z,27.8903,-94.0367,2.0,356.7327351,5.438841788,-99999.0,'11133222,11111222,99999999' 
TABS,ioos:station:wmo:42046:1,2015-05-01T17:30:00Z,27.8903,-94.0367,2.0,13.50304028,6.252839355,-99999.0,'11133222,11111222,99999999' 
TABS,ioos:station:wmo:42046:1,2015-05-01T18:00:00Z,27.8903,-94.0367,2.0,33.40463197,6.121192694,-99999.0,'11133222,11111222,99999999' 
TABS,ioos:station:wmo:42046:1,2015-05-01T18:30:00Z,27.8903,-94.0367,2.0,313.1527097,0.657951366,-99999.0,'11133222,11111222,99999999' 
TABS,ioos:station:wmo:42046:1,2015-05-01T19:00:00Z,27.8903,-94.0367,2.0,121.3659539,1.709883037,-99999.0,'11133222,11111222,99999999' 
TABS,ioos:station:wmo:42046:1,2015-05-01T19:30:00Z,27.8903,-94.0367,2.0,73.50851226,1.585212919,-99999.0,'11133222,11111222,99999999' 
TABS,ioos:station:wmo:42046:1,2015-05-01T20:00:00Z,27.8903,-94.0367,2.0,88.14741745,3.711940193,-99999.0,'11133222,11111222,99999999' 
TABS,ioos:station:wmo:42046:1,2015-05-01T20:30:00Z,27.8903,-94.0367,2.0,222.958565,3.37504074,-99999.0,'11133222,11111222,99999999' 
TABS,ioos:station:wmo:42046:1,2015-05-01T21:00:00Z,27.8903,-94.0367,2.0,211.2136714,6.676503576,-99999.0,'11133222,11111222,99999999' 
TABS,ioos:station:wmo:42046:1,2015-05-01T21:30:00Z,27.8903,-94.0367,2.0,220.018614,3.094672842,-99999.0,'11133222,11111222,99999999' 
TABS,ioos:station:wmo:42046:1,2015-05-01T22:00:00Z,27.8903,-94.0367,2.0,192.5454419,7.365874015,-99999.0,'11133222,11111222,99999999' 
TABS,ioos:station:wmo:42046:1,2015-05-01T22:30:00Z,27.8903,-94.0367,2.0,195.5654766,6.63328727,-99999.0,'11133222,11111222,99999999' 
TABS,ioos:station:wmo:42046:1,2015-05-01T23:00:00Z,27.8903,-94.0367,2.0,183.0938404,5.558102194,-99999.0,'11133222,11111222,99999999' 
TABS,ioos:station:wmo:42046:1,2015-05-01T23:30:00Z,27.8903,-94.0367,2.0,205.5990193,7.429273181,-99999.0,'11133222,11111222,99999999' 
TABS,ioos:station:wmo:42046:1,2015-05-02T00:00:00Z,27.8903,-94.0367,2.0,170.6277187,4.175739455,-99999.0,'11133222,11111222,99999999' 
TABS,ioos:station:wmo:42046:1,2015-05-02T00:30:00Z,27.8903,-94.0367,2.0,145.8273226,3.95237903,-99999.0,'11133222,11111222,99999999' 
TABS,ioos:station:wmo:42046:1,2015-05-02T01:00:00Z,27.8903,-94.0367,2.0,128.2730265,1.388416364,-99999.0,'11133222,11111222,99999999' 
TABS,ioos:station:wmo:42046:1,2015-05-02T01:30:00Z,27.8903,-94.0367,2.0,80.1477628,3.623437594,-99999.0,'11133222,11111222,99999999' 
TABS,ioos:station:wmo:42046:1,2015-05-02T02:00:00Z,27.8903,-94.0367,2.0,71.90613577,3.18763235,-99999.0,'11133222,11111222,99999999' 
TABS,ioos:station:wmo:42046:1,2015-05-02T02:30:00Z,27.8903,-94.0367,2.0,46.95482927,4.146058369,-99999.0,'11133222,11111222,99999999' 
TABS,ioos:station:wmo:42046:1,2015-05-02T03:00:00Z,27.8903,-94.0367,2.0,83.28062642,3.504069063,-99999.0,'11133222,11111222,99999999' 
TABS,ioos:station:wmo:42046:1,2015-05-02T03:30:00Z,27.8903,-94.0367,2.0,96.94411427,3.143055838,-99999.0,'11133222,11111222,99999999' 
TABS,ioos:station:wmo:42046:1,2015-05-02T04:00:00Z,27.8903,-94.0367,2.0,118.024435,1.404706375,-99999.0,'11133222,11111222,99999999' 
TABS,ioos:station:wmo:42046:1,2015-05-02T04:30:00Z,27.8903,-94.0367,2.0,89.19533878,7.120702213,-99999.0,'11133222,11111222,99999999' 
TABS,ioos:station:wmo:42046:1,2015-05-02T05:00:00Z,27.8903,-94.0367,2.0,65.54540491,8.865314433,-99999.0,'11133222,11111222,99999999' 
TABS,ioos:station:wmo:42046:1,2015-05-02T05:30:00Z,27.8903,-94.0367,2.0,86.14320803,5.352121075,-99999.0,'11133222,11111222,99999999' 
TABS,ioos:station:wmo:42046:1,2015-05-02T06:00:00Z,27.8903,-94.0367,2.0,70.59068751,7.252151405,-99999.0,'11133222,11111222,99999999' 
TABS,ioos:station:wmo:42046:1,2015-05-02T06:30:00Z,27.8903,-94.0367,2.0,103.5783131,4.855718278,-99999.0,'11133222,11111222,99999999' 
TABS,ioos:station:wmo:42046:1,2015-05-02T07:00:00Z,27.8903,-94.0367,2.0,97.60038165,6.577788382,-99999.0,'11133222,11111222,99999999' 
TABS,ioos:station:wmo:42046:1,2015-05-02T07:30:00Z,27.8903,-94.0367,2.0,99.16941754,5.145755532,-99999.0,'11133222,11111222,99999999' 
TABS,ioos:station:wmo:42046:1,2015-05-02T08:00:00Z,27.8903,-94.0367,2.0,117.7933624,6.8841993,-99999.0,'11133222,11111222,99999999' 
TABS,ioos:station:wmo:42046:1,2015-05-02T08:30:00Z,27.8903,-94.0367,2.0,96.15970526,7.362506367,-99999.0,'11133222,11111222,99999999' 
TABS,ioos:station:wmo:42046:1,2015-05-02T09:00:00Z,27.8903,-94.0367,2.0,121.9930735,4.963970185,-99999.0,'11133222,11111222,99999999' 
TABS,ioos:station:wmo:42046:1,2015-05-02T09:30:00Z,27.8903,-94.0367,2.0,134.6890715,7.82071608,-99999.0,'11133222,11111222,99999999' 
TABS,ioos:station:wmo:42046:1,2015-05-02T10:00:00Z,27.8903,-94.0367,2.0,120.0888923,6.402788455,-99999.0,'11133222,11111222,99999999' 
TABS,ioos:station:wmo:42046:1,2015-05-02T10:30:00Z,27.8903,-94.0367,2.0,145.5842615,6.351826509,-99999.0,'11133222,11111222,99999999' 
TABS,ioos:station:wmo:42046:1,2015-05-02T11:00:00Z,27.8903,-94.0367,2.0,149.0576047,4.570437616,-99999.0,'11133222,11111222,99999999' 
TABS,ioos:station:wmo:42046:1,2015-05-02T11:30:00Z,27.8903,-94.0367,2.0,130.5503155,6.106594796,-99999.0,'11133222,11111222,99999999' 
TABS,ioos:station:wmo:42046:1,2015-05-02T12:00:00Z,27.8903,-94.0367,2.0,176.6766769,9.315664228,-99999.0,'11133222,11111222,99999999' 
TABS,ioos:station:wmo:42046:1,2015-05-02T12:30:00Z,27.8903,-94.0367,2.0,182.5494381,7.867788762,-99999.0,'11133222,11111222,99999999' 
TABS,ioos:station:wmo:42046:1,2015-05-02T13:00:00Z,27.8903,-94.0367,2.0,172.4544332,8.453194662,-99999.0,'11133222,11111222,99999999' 
TABS,ioos:station:wmo:42046:1,2015-05-02T13:30:00Z,27.8903,-94.0367,2.0,186.6641157,9.564627541,-99999.0,'11133222,11111222,99999999' 
TABS,ioos:station:wmo:42046:1,2015-05-02T14:00:00Z,27.8903,-94.0367,2.0,216.2806797,6.810359756,-99999.0,'11133222,11111222,99999999' 
TABS,ioos:station:wmo:42046:1,2015-05-02T14:30:00Z,27.8903,-94.0367,2.0,205.5987957,6.897013847,-99999.0,'11133222,11111222,99999999' 
TABS,ioos:station:wmo:42046:1,2015-05-02T15:00:00Z,27.8903,-94.0367,2.0,225.3463262,8.18137519,-99999.0,'11133222,11111222,99999999' 
TABS,ioos:station:wmo:42046:1,2015-05-02T15:30:00Z,27.8903,-94.0367,2.0,187.8397359,5.864818838,-99999.0,'11133222,11111222,99999999' 
TABS,ioos:station:wmo:42046:1,2015-05-02T16:00:00Z,27.8903,-94.0367,2.0,229.8562769,6.51462969,-99999.0,'11133222,11111222,99999999' 
TABS,ioos:station:wmo:42046:1,2015-05-02T16:30:00Z,27.8903,-94.0367,2.0,240.7941859,3.688956492,-99999.0,'11133222,11111222,99999999' 
TABS,ioos:station:wmo:42046:1,2015-05-02T17:00:00Z,27.8903,-94.0367,2.0,273.1600311,4.717170762,-99999.0,'11133222,11111222,99999999' 
TABS,ioos:station:wmo:42046:1,2015-05-02T17:30:00Z,27.8903,-94.0367,2.0,300.1722972,7.321973778,-99999.0,'11133222,11111222,99999999' 
TABS,ioos:station:wmo:42046:1,2015-05-02T18:00:00Z,27.8903,-94.0367,2.0,289.4779228,6.77788315,-99999.0,'11133222,11111222,99999999' 
TABS,ioos:station:wmo:42046:1,2015-05-02T18:30:00Z,27.8903,-94.0367,2.0,312.5566556,6.13619589,-99999.0,'11133222,11111222,99999999' 
TABS,ioos:station:wmo:42046:1,2015-05-02T19:00:00Z,27.8903,-94.0367,2.0,296.9646763,12.83534183,-99999.0,'11111222,11111222,99999999' 
TABS,ioos:station:wmo:42046:1,2015-05-02T19:30:00Z,27.8903,-94.0367,2.0,304.2420102,10.9475157,-99999.0,'11111222,11111222,99999999' 
TABS,ioos:station:wmo:42046:1,2015-05-02T20:00:00Z,27.8903,-94.0367,2.0,318.1493287,10.94132076,-99999.0,'11111222,11111222,99999999' 
TABS,ioos:station:wmo:42046:1,2015-05-02T20:30:00Z,27.8903,-94.0367,2.0,318.5577681,10.71209597,-99999.0,'11111222,11111222,99999999' 
TABS,ioos:station:wmo:42046:1,2015-05-02T21:00:00Z,27.8903,-94.0367,2.0,324.7226913,11.01225227,-99999.0,'11111222,11111222,99999999' 
TABS,ioos:station:wmo:42046:1,2015-05-02T21:30:00Z,27.8903,-94.0367,2.0,305.2323719,7.6271161,-99999.0,'11133222,11111222,99999999' 
TABS,ioos:station:wmo:42046:1,2015-05-02T22:00:00Z,27.8903,-94.0367,2.0,339.3419867,13.77576495,-99999.0,'11111222,11111222,99999999' 
TABS,ioos:station:wmo:42046:1,2015-05-02T22:30:00Z,27.8903,-94.0367,2.0,337.6079824,10.26392712,-99999.0,'11111222,11111222,99999999' 
TABS,ioos:station:wmo:42046:1,2015-05-02T23:00:00Z,27.8903,-94.0367,2.0,352.6983265,18.88313798,-99999.0,'11111222,11111222,99999999' 
TABS,ioos:station:wmo:42046:1,2015-05-02T23:30:00Z,27.8903,-94.0367,2.0,5.06326107,13.03084418,-99999.0,'11111222,11111222,99999999' 
TABS,ioos:station:wmo:42046:1,2015-05-03T00:00:00Z,27.8903,-94.0367,2.0,358.33808,13.44565729,-99999.0,'11111222,11111222,99999999' 
TABS,ioos:station:wmo:42046:1,2015-05-03T00:30:00Z,27.8903,-94.0367,2.0,12.2149895,12.66675965,-99999.0,'11111222,11111222,99999999' 
TABS,ioos:station:wmo:42046:1,2015-05-03T01:00:00Z,27.8903,-94.0367,2.0,26.08214018,14.85249137,-99999.0,'11111222,11111222,99999999' 
TABS,ioos:station:wmo:42046:1,2015-05-03T01:30:00Z,27.8903,-94.0367,2.0,44.38487362,10.53649847,-99999.0,'11111222,11111222,99999999' 
TABS,ioos:station:wmo:42046:1,2015-05-03T02:00:00Z,27.8903,-94.0367,2.0,49.70794646,7.236905416,-99999.0,'11133222,11111222,99999999' 
TABS,ioos:station:wmo:42046:1,2015-05-03T02:30:00Z,27.8903,-94.0367,2.0,45.04583199,8.86005079,-99999.0,'11133222,11111222,99999999' 
TABS,ioos:station:wmo:42046:1,2015-05-03T03:00:00Z,27.8903,-94.0367,2.0,41.4116877,8.360251192,-99999.0,'11133222,11111222,99999999' 
TABS,ioos:station:wmo:42046:1,2015-05-03T03:30:00Z,27.8903,-94.0367,2.0,61.00613364,11.92448322,-99999.0,'11111222,11111222,99999999' 
TABS,ioos:station:wmo:42046:1,2015-05-03T04:00:00Z,27.8903,-94.0367,2.0,56.90518791,10.146014,-99999.0,'11111222,11111222,99999999' 
TABS,ioos:station:wmo:42046:1,2015-05-03T04:30:00Z,27.8903,-94.0367,2.0,51.8468228,8.126038395,-99999.0,'11133222,11111222,99999999' 
TABS,ioos:station:wmo:42046:1,2015-05-03T05:00:00Z,27.8903,-94.0367,2.0,75.60001237,5.348018325,-99999.0,'11133222,11111222,99999999' 
TABS,ioos:station:wmo:42046:1,2015-05-03T05:30:00Z,27.8903,-94.0367,2.0,58.67138039,6.731456009,-99999.0,'11133222,11111222,99999999' 
TABS,ioos:station:wmo:42046:1,2015-05-03T06:00:00Z,27.8903,-94.0367,2.0,88.5013279,3.441177124,-99999.0,'11133222,11111222,99999999' 
TABS,ioos:station:wmo:42046:1,2015-05-03T06:30:00Z,27.8903,-94.0367,2.0,79.30678392,7.652894877,-99999.0,'11133222,11111222,99999999' 
TABS,ioos:station:wmo:42046:1,2015-05-03T07:00:00Z,27.8903,-94.0367,2.0,79.83666326,8.330720257,-99999.0,'11133222,11111222,99999999' 
TABS,ioos:station:wmo:42046:1,2015-05-03T07:30:00Z,27.8903,-94.0367,2.0,102.7727521,9.679524782,-99999.0,'11133222,11111222,99999999' 
TABS,ioos:station:wmo:42046:1,2015-05-03T08:00:00Z,27.8903,-94.0367,2.0,108.0938642,5.312720584,-99999.0,'11133222,11111222,99999999' 
TABS,ioos:station:wmo:42046:1,2015-05-03T08:30:00Z,27.8903,-94.0367,2.0,98.06098773,10.55428349,-99999.0,'11111222,11111222,99999999' 
TABS,ioos:station:wmo:42046:1,2015-05-03T09:00:00Z,27.8903,-94.0367,2.0,111.163161,8.835932322,-99999.0,'11133222,11111222,99999999' 
TABS,ioos:station:wmo:42046:1,2015-05-03T09:30:00Z,27.8903,-94.0367,2.0,102.3664682,13.4009328,-99999.0,'11111222,11111222,99999999' 
TABS,ioos:station:wmo:42046:1,2015-05-03T10:00:00Z,27.8903,-94.0367,2.0,110.7874528,13.32758418,-99999.0,'11111222,11111222,99999999' 
TABS,ioos:station:wmo:42046:1,2015-05-03T10:30:00Z,27.8903,-94.0367,2.0,108.0262418,11.08406514,-99999.0,'11111222,11111222,99999999' 
TABS,ioos:station:wmo:42046:1,2015-05-03T11:00:00Z,27.8903,-94.0367,2.0,104.890735,10.89591208,-99999.0,'11111222,11111222,99999999' 
TABS,ioos:station:wmo:42046:1,2015-05-03T11:30:00Z,27.8903,-94.0367,2.0,120.361473,16.48020934,-99999.0,'11111222,11111222,99999999' 
TABS,ioos:station:wmo:42046:1,2015-05-03T12:00:00Z,27.8903,-94.0367,2.0,126.5405297,17.40028735,-99999.0,'11111222,11111222,99999999' 
TABS,ioos:station:wmo:42046:1,2015-05-03T12:30:00Z,27.8903,-94.0367,2.0,137.373485,13.6588799,-99999.0,'11111222,11111222,99999999' 
TABS,ioos:station:wmo:42046:1,2015-05-03T13:00:00Z,27.8903,-94.0367,2.0,151.9130729,2.357647132,-99999.0,'11133222,11111222,99999999' 
TABS,ioos:station:wmo:42046:1,2015-05-03T13:30:00Z,27.8903,-94.0367,2.0,150.036437,9.430429471,-99999.0,'11133222,11111222,99999999' 
TABS,ioos:station:wmo:42046:1,2015-05-03T14:00:00Z,27.8903,-94.0367,2.0,178.1313345,7.974239776,-99999.0,'11133222,11111222,99999999' 
TABS,ioos:station:wmo:42046:1,2015-05-03T14:30:00Z,27.8903,-94.0367,2.0,180.6583312,3.480229877,-99999.0,'11133222,11111222,99999999' 
TABS,ioos:station:wmo:42046:1,2015-05-03T15:00:00Z,27.8903,-94.0367,2.0,205.8552713,4.333832023,-99999.0,'11133222,11111222,99999999' 
TABS,ioos:station:wmo:42046:1,2015-05-03T15:30:00Z,27.8903,-94.0367,2.0,174.2575197,5.397082545,-99999.0,'11133222,11111222,99999999' 
TABS,ioos:station:wmo:42046:1,2015-05-03T16:00:00Z,27.8903,-94.0367,2.0,211.8806626,4.392641574,-99999.0,'11133222,11111222,99999999' 
TABS,ioos:station:wmo:42046:1,2015-05-03T16:30:00Z,27.8903,-94.0367,2.0,175.5441971,3.089336498,-99999.0,'11133222,11111222,99999999' 
TABS,ioos:station:wmo:42046:1,2015-05-03T17:00:00Z,27.8903,-94.0367,2.0,148.2009511,0.588302643,-99999.0,'11133222,11111222,99999999' 
TABS,ioos:station:wmo:42046:1,2015-05-03T17:30:00Z,27.8903,-94.0367,2.0,294.1524343,2.761756687,-99999.0,'11133222,11111222,99999999' 
TABS,ioos:station:wmo:42046:1,2015-05-03T18:00:00Z,27.8903,-94.0367,2.0,292.2803715,7.780906117,-99999.0,'11133222,11111222,99999999' 
TABS,ioos:station:wmo:42046:1,2015-05-03T18:30:00Z,27.8903,-94.0367,2.0,299.40992,11.44488095,-99999.0,'11111222,11111222,99999999' 
TABS,ioos:station:wmo:42046:1,2015-05-03T19:00:00Z,27.8903,-94.0367,2.0,316.368641,10.95620829,-99999.0,'11111222,11111222,99999999' 
TABS,ioos:station:wmo:42046:1,2015-05-03T19:30:00Z,27.8903,-94.0367,2.0,312.3644151,9.379088442,-99999.0,'11133222,11111222,99999999' 
TABS,ioos:station:wmo:42046:1,2015-05-03T20:00:00Z,27.8903,-94.0367,2.0,302.7942613,7.62528688,-99999.0,'11133222,11111222,99999999' 
TABS,ioos:station:wmo:42046:1,2015-05-03T20:30:00Z,27.8903,-94.0367,2.0,295.6825786,11.02959655,-99999.0,'11111222,11111222,99999999' 
TABS,ioos:station:wmo:42046:1,2015-05-03T21:00:00Z,27.8903,-94.0367,2.0,290.0869374,15.14095109,-99999.0,'11111222,11111222,99999999' 
TABS,ioos:station:wmo:42046:1,2015-05-03T21:30:00Z,27.8903,-94.0367,2.0,298.5981984,14.49884478,-99999.0,'11111222,11111222,99999999' 
TABS,ioos:station:wmo:42046:1,2015-05-03T22:00:00Z,27.8903,-94.0367,2.0,319.3073378,13.55817097,-99999.0,'11111222,11111222,99999999' 
TABS,ioos:station:wmo:42046:1,2015-05-03T22:30:00Z,27.8903,-94.0367,2.0,309.5252447,19.3427635,-99999.0,'11111222,11111222,99999999' 
TABS,ioos:station:wmo:42046:1,2015-05-03T23:00:00Z,27.8903,-94.0367,2.0,325.2794301,19.7338795,-99999.0,'11111222,11111222,99999999' 
TABS,ioos:station:wmo:42046:1,2015-05-03T23:30:00Z,27.8903,-94.0367,2.0,326.4587462,18.18868055,-99999.0,'11111222,11111222,99999999' 
TABS,ioos:station:wmo:42046:1,2015-05-04T00:00:00Z,27.8903,-94.0367,2.0,345.9191605,15.49560583,-99999.0,'11111222,11111222,99999999' 
TABS,ioos:station:wmo:42046:1,2015-05-04T00:30:00Z,27.8903,-94.0367,2.0,343.8130617,17.57681427,-99999.0,'11111222,11111222,99999999' 
TABS,ioos:station:wmo:42046:1,2015-05-04T01:00:00Z,27.8903,-94.0367,2.0,347.6213113,14.92703587,-99999.0,'11111222,11111222,99999999' 
TABS,ioos:station:wmo:42046:1,2015-05-04T01:30:00Z,27.8903,-94.0367,2.0,327.8825909,10.81517915,-99999.0,'11111222,11111222,99999999' 
TABS,ioos:station:wmo:42046:1,2015-05-04T02:00:00Z,27.8903,-94.0367,2.0,351.1433109,14.15883117,-99999.0,'11111222,11111222,99999999' 
TABS,ioos:station:wmo:42046:1,2015-05-04T02:30:00Z,27.8903,-94.0367,2.0,6.626411609,8.406152509,-99999.0,'11133222,11111222,99999999' 
TABS,ioos:station:wmo:42046:1,2015-05-04T03:00:00Z,27.8903,-94.0367,2.0,13.34797015,10.09263593,-99999.0,'11111222,11111222,99999999' 
TABS,ioos:station:wmo:42046:1,2015-05-04T03:30:00Z,27.8903,-94.0367,2.0,16.54136532,12.15294614,-99999.0,'11111222,11111222,99999999' 
TABS,ioos:station:wmo:42046:1,2015-05-04T04:00:00Z,27.8903,-94.0367,2.0,25.08681545,14.38717832,-99999.0,'11111222,11111222,99999999' 
TABS,ioos:station:wmo:42046:1,2015-05-04T04:30:00Z,27.8903,-94.0367,2.0,9.298176304,13.18320902,-99999.0,'11111222,11111222,99999999' 
TABS,ioos:station:wmo:42046:1,2015-05-04T05:00:00Z,27.8903,-94.0367,2.0,31.97539097,16.12680998,-99999.0,'11111222,11111222,99999999' 
TABS,ioos:station:wmo:42046:1,2015-05-04T05:30:00Z,27.8903,-94.0367,2.0,20.93856784,12.45228493,-99999.0,'11111222,11111222,99999999' 
TABS,ioos:station:wmo:42046:1,2015-05-04T06:00:00Z,27.8903,-94.0367,2.0,46.31662668,12.00277051,-99999.0,'11111222,11111222,99999999' 
TABS,ioos:station:wmo:42046:1,2015-05-04T06:30:00Z,27.8903,-94.0367,2.0,41.34576657,8.098697426,-99999.0,'11133222,11111222,99999999' 
TABS,ioos:station:wmo:42046:1,2015-05-04T07:00:00Z,27.8903,-94.0367,2.0,44.24000859,8.528458243,-99999.0,'11133222,11111222,99999999' 
TABS,ioos:station:wmo:42046:1,2015-05-04T07:30:00Z,27.8903,-94.0367,2.0,47.92941763,8.163608271,-99999.0,'11133222,11111222,99999999' 
TABS,ioos:station:wmo:42046:1,2015-05-04T08:00:00Z,27.8903,-94.0367,2.0,55.35029654,13.57819207,-99999.0,'11111222,11111222,99999999' 
TABS,ioos:station:wmo:42046:1,2015-05-04T08:30:00Z,27.8903,-94.0367,2.0,70.6093184,9.668428,-99999.0,'11133222,11111222,99999999' 
TABS,ioos:station:wmo:42046:1,2015-05-04T09:00:00Z,27.8903,-94.0367,2.0,72.52023361,10.0542777,-99999.0,'11111222,11111222,99999999' 
TABS,ioos:station:wmo:42046:1,2015-05-04T09:30:00Z,27.8903,-94.0367,2.0,92.76427389,9.33085741,-99999.0,'11133222,11111222,99999999' 
TABS,ioos:station:wmo:42046:1,2015-05-04T10:00:00Z,27.8903,-94.0367,2.0,109.3589489,7.059121758,-99999.0,'11133222,11111222,99999999' 
TABS,ioos:station:wmo:42046:1,2015-05-04T10:30:00Z,27.8903,-94.0367,2.0,356.1861445,2.104661493,-99999.0,'11133222,11111222,99999999' 
TABS,ioos:station:wmo:42046:1,2015-05-04T11:00:00Z,27.8903,-94.0367,2.0,148.3787889,5.531193361,-99999.0,'11133222,11111222,99999999' 
TABS,ioos:station:wmo:42046:1,2015-05-04T11:30:00Z,27.8903,-94.0367,2.0,116.3632447,12.70094485,-99999.0,'11111222,11111222,99999999' 
TABS,ioos:station:wmo:42046:1,2015-05-04T12:00:00Z,27.8903,-94.0367,2.0,132.289698,16.74888056,-99999.0,'11111222,11111222,99999999' 
TABS,ioos:station:wmo:42046:1,2015-05-04T12:30:00Z,27.8903,-94.0367,2.0,151.368687,11.03993659,-99999.0,'11111222,11111222,99999999' 
TABS,ioos:station:wmo:42046:1,2015-05-04T13:00:00Z,27.8903,-94.0367,2.0,153.7737061,12.85314358,-99999.0,'11111222,11111222,99999999' 
TABS,ioos:station:wmo:42046:1,2015-05-04T13:30:00Z,27.8903,-94.0367,2.0,147.963734,17.77722701,-99999.0,'11111222,11111222,99999999' 
TABS,ioos:station:wmo:42046:1,2015-05-04T14:00:00Z,27.8903,-94.0367,2.0,142.3842511,13.36913236,-99999.0,'11111222,11111222,99999999' 
TABS,ioos:station:wmo:42046:1,2015-05-04T14:30:00Z,27.8903,-94.0367,2.0,157.4879754,16.32387515,-99999.0,'11111222,11111222,99999999' 
TABS,ioos:station:wmo:42046:1,2015-05-04T15:00:00Z,27.8903,-94.0367,2.0,137.4873647,16.94410222,-99999.0,'11111222,11111222,99999999' 
TABS,ioos:station:wmo:42046:1,2015-05-04T15:30:00Z,27.8903,-94.0367,2.0,161.0252234,16.1156818,-99999.0,'11111222,11111222,99999999' 
TABS,ioos:station:wmo:42046:1,2015-05-04T16:00:00Z,27.8903,-94.0367,2.0,177.0464846,11.64546693,-99999.0,'11111222,11111222,99999999' 